Miscellaneous Local Product
Issued by NWS North Platte, NE

Home | Current Version | Previous Version | Text Only | Print | Product List | Glossary On
Versions: 1 2 3 4 5 6 7 8 9 10 11 12 13 14 15 16 17 18 19 20 21 22 23 24 25 26 27 28 29 30 31 32 33 34 35 36 37 38 39 40 41 42 43 44 45 46 47 48 49 50
000
AXUS43 KLBF 280710
MISLBF


WESTERN AND NORTH CENTRAL NEBRASKA HOURLY WEATHER ROUNDUP
NATIONAL WEATHER SERVICE NORTH PLATTE NE
200 AM CDT SAT MAY 28 2016

NOTE: "FAIR" INDICATES FEW OR NO CLOUDS BELOW 12,000 FEET WITH NO
SIGNIFICANT WEATHER AND/OR OBSTRUCTIONS TO VISIBILITY.

NOTE: STATIONS NOT REPORTING VARIABLES SUCH AS SKY/WEATHER OR
PRESSURE ARE PROVIDED BY RAWS AND APRS NETWORKS AND ARE NOT UNDER
NATIONAL WEATHER SERVICE QUALITY CONTROL.

...OBSERVATIONS IN AND NEAR THE EASTERN PANHANDLE OF NEBRASKA...

CITY           SKY/WX    TMP DP  RH WIND       PRES   REMARKS
PINE RIDGE     CLOUDY    47  44  90 W3        29.87F
CHADRON        CLOUDY    48  44  86 CALM      29.88S
ALLIANCE       CLOUDY    43  42  97 W6        29.89S
SIDNEY         CLEAR     44  42  93 NW9       29.92S
CRESCENT LAKE    N/A     49  45  87 NW6         N/A
BIG SPRINGS      N/A     51  49  92 W3          N/A
$$

...OBSERVATIONS IN NORTHERN NEBRASKA AND FAR SOUTHERN SOUTH DAKOTA...

CITY           SKY/WX    TMP DP  RH WIND       PRES   REMARKS
WINNER         FAIR      56  53  90 NW7       29.79F
VALENTINE      CLOUDY    54  50  86 W7        29.82F
THEDFORD       CLOUDY    56  51  84 NW3       29.83S
AINSWORTH      CLOUDY    57  52  85 NW7       29.81R
O`NEILL        RAIN      59  57  94 CALM      29.77S
ORD            LGT RAIN  57  55  93 SW5       29.77R
BROKEN BOW     LGT RAIN  56  54  93 SE3       29.80S
BUTTE            N/A     59  57  92 N9          N/A
CHAMBERS         N/A     57  55  94 CALM        N/A
EWING            N/A     58  56  94 W3          N/A
$$

...OBSERVATIONS IN SOUTHWEST NEBRASKA AND FAR NORTHEAST COLORADO...

CITY           SKY/WX    TMP DP  RH WIND       PRES   REMARKS
HOLYOKE        FAIR      54  48  82 NW9       29.89S
IMPERIAL       PTCLDY    52  48  86 NW12      29.85R
OGALLALA       CLOUDY    50  47  90 NW5       29.86R
NORTH PLATTE   CLOUDY    57  51  80 N7        29.83R
MCCOOK         CLOUDY    54  50  86 W8        29.80R
LEXINGTON      RAIN      56  53  91 E16       29.79F
PAXTON           N/A     54  51  90 NW5         N/A
STAPLETON        N/A     56  51  82 CALM        N/A
GOTHENBURG       N/A     57  52  83 NE3         N/A
CALLAWAY         N/A     55  54  96 E5          N/A
$$

...OBSERVATIONS IN CENTRAL LINCOLN COUNTY AREA...

CITY           SKY/WX    TMP DP  RH WIND       PRES   REMARKS
N.P. AIRPORT   CLOUDY    57  51  80 N7        29.83R
N.P. DOWNTOWN    N/A     57  51  82 CALM        N/A
N.P. SOUTHEAST   N/A     57  51  79 CALM        N/A
N.P. HILLCREST   N/A     56  51  84 NE6         N/A
$$

...SOME OBSERVATIONS FROM AROUND THE REGION...

CITY           SKY/WX    TMP DP  RH WIND       PRES   REMARKS
DENVER         PTCLDY    45  40  82 SW9       29.94F
LARAMIE        CLEAR     35  33  92 S7        30.00F WCI  29
CHEYENNE       CLEAR     43  37  79 NW7       29.95S
SCOTTSBLUFF    CLEAR     44  41  89 SE3       29.91R
RAPID CITY     CLEAR     46  44  93 NW5       29.86S
BISMARCK       CLOUDY    56  50  80 CALM      29.84S
PIERRE         CLOUDY    59  53  80 NW6       29.79F
SIOUX FALLS    CLOUDY    62  58  86 N9        29.73F
OMAHA          CLOUDY    62  59  90 E5        29.71S
GRAND ISLAND   LGT RAIN  57  55  93 SW8       29.78R
KANSAS CITY    MOCLDY    59  57  93 SE7       29.74R
WICHITA        PTCLDY    63  59  87 S12       29.69S
OKLAHOMA CITY  CLEAR     63  61  93 S8        29.80R
DALLAS         CLOUDY    68  64  87 SE10      29.82R
AMARILLO       CLEAR     54  43  66 N5        29.92R
DODGE CITY     PTCLDY    55  52  89 W12       29.82R
HAYS           CLOUDY    55  48  76 CALM      29.76R
GOODLAND       CLEAR     48  46  93 NW9       29.87R
$$




USA.gov is the U.S. government's official web portal to all federal, state and local government web resources and services.